FW7499 Weather Reports


time (UTC)temp
C
wind
direction
speed
KPH
gust
KPH
rain 1hr
cm
rain 24hr
cm
rain mn
cm
humidity
%
barometer
mb
20260901184002 33 170 1.6 3.2 0.00 0.00 0.00 52 1013.2
20260901183504 32 287 1.6 8.0 0.00 0.00 0.00 56 1013.2
20260901183003 32 150 3.2 8.0 0.00 0.00 0.00 52 1013.2
20260901182503 33 291 1.6 9.7 0.00 0.00 0.00 51 1013.2
20260901182003 32 99 1.6 9.7 0.00 0.00 0.00 52 1013.2
20260901181503 32 254 1.6 6.4 0.00 0.00 0.00 55 1013.3
20260901181009 32 123 1.6 6.4 0.00 0.00 0.00 51 1013.3
20260901180507 32 59 3.2 6.4 0.00 0.00 0.00 54 1013.4
20260901180004 32 219 1.6 9.7 0.00 0.00 0.00 56 1013.4
20260901175509 32 88 1.6 9.7 0.00 0.00 0.00 55 1013.5
20260901175005 32 40 1.6 6.4 0.00 0.00 0.00 55 1013.6
20260901174503 32 182 0.0 3.2 0.00 0.00 0.00 53 1013.7
20260901174003 31 113 1.6 6.4 0.00 0.00 0.00 53 1013.7
20260901173506 31 59 1.6 6.4 0.00 0.00 0.00 53 1013.7
20260901173006 31 319 1.6 9.7 0.00 0.00 0.00 53 1013.7
20260901172502 31 280 3.2 9.7 0.00 0.00 0.00 54 1013.8
20260901172002 31 83 3.2 9.7 0.00 0.00 0.00 54 1013.8
20260901171503 31 162 1.6 9.7 0.00 0.00 0.00 54 1013.9
20260901171004 31 274 0.0 6.4 0.00 0.00 0.00 56 1013.9
20260901170506 31 184 1.6 4.8 0.00 0.00 0.00 55 1013.9
20260901170008 31 71 1.6 6.4 0.00 0.00 0.00 56 1013.9
20260901165509 31 103 3.2 6.4 0.00 0.00 0.00 56 1013.9
20260901165004 31 297 1.6 6.4 0.00 0.00 0.00 56 1013.9
20260901164510 31 61 1.6 6.4 0.00 0.00 0.00 57 1013.9
20260901164006 31 56 1.6 6.4 0.00 0.00 0.00 56 1013.9
20260901163512 30 175 1.6 6.4 0.00 0.00 0.00 54 1013.9
20260901163007 30 266 3.2 6.4 0.00 0.00 0.00 55 1014.0
20260901162503 30 136 1.6 4.8 0.00 0.00 0.00 57 1014.0
20260901162011 30 163 1.6 4.8 0.00 0.00 0.00 56 1014.0
20260901161503 30 83 1.6 4.8 0.00 0.00 0.00 56 1013.9
20260901161004 30 306 3.2 6.4 0.00 0.00 0.00 54 1014.0
20260901160504 30 57 0.0 6.4 0.00 0.00 0.00 57 1014.0
20260901160012 29 251 1.6 6.4 0.00 0.00 0.00 57 1014.0
20260901155503 29 171 1.6 6.4 0.00 0.00 0.00 58 1014.0
20260901155006 30 270 1.6 8.0 0.00 0.00 0.00 55 1013.9
20260901154505 29 268 1.6 8.0 0.00 0.00 0.00 56 1013.9
20260901154004 29 133 1.6 8.0 0.00 0.00 0.00 54 1013.8
20260901153511 29 146 0.0 3.2 0.00 0.00 0.00 56 1013.8
20260901153017 29 289 0.0 6.4 0.00 0.00 0.00 58 1013.8
20260901152511 29 275 1.6 6.4 0.00 0.00 0.00 56 1013.8
20260901152003 28 261 0.0 6.4 0.00 0.00 0.00 58 1013.8
20260901151519 28 223 1.6 6.4 0.00 0.00 0.00 58 1013.8
20260901151009 28 292 3.2 6.4 0.00 0.00 0.00 57 1013.8
20260901150502 28 55 0.0 3.2 0.00 0.00 0.00 60 1013.8
20260901150004 28 186 0.0 4.8 0.00 0.00 0.00 59 1013.9
20260901145503 28 240 1.6 6.4 0.00 0.00 0.00 60 1013.9
20260901145003 27 304 1.6 8.0 0.00 0.00 0.00 62 1013.9
20260901144514 27 155 3.2 8.0 0.00 0.00 0.00 60 1013.9
20260901144007 27 211 1.6 3.2 0.00 0.00 0.00 64 1014.0
20260901143509 27 240 0.0 3.2 0.00 0.00 0.00 61 1014.0
20260901143014 27 219 1.6 4.8 0.00 0.00 0.00 62 1014.1
20260901142507 27 169 0.0 4.8 0.00 0.00 0.00 67 1014.1
20260901142011 27 254 0.0 3.2 0.00 0.00 0.00 66 1014.1
20260901141523 26 286 1.6 4.8 0.00 0.00 0.00 66 1014.2
20260901141002 26 282 0.0 4.8 0.00 0.00 0.00 67 1014.2
20260901140509 26 182 0.0 3.2 0.00 0.00 0.00 70 1014.2
20260901140020 26 182 0.0 3.2 0.00 0.00 0.00 70 1014.1
20260901135516 26 220 0.0 3.2 0.00 0.00 0.00 73 1014.1
20260901135004 26 163 0.0 3.2 0.00 0.00 0.00 76 1014.1
20260901134522 25 136 0.0 3.2 0.00 0.00 0.00 74 1014.2
20260901134007 25 159 0.0 3.2 0.00 0.00 0.00 76 1014.1
20260901133503 25 78 0.0 3.2 0.00 0.00 0.00 78 1014.1
20260901133019 25 78 0.0 3.2 0.00 0.00 0.00 80 1014.1
20260901132511 24 78 0.0 3.2 0.00 0.00 0.00 81 1014.0
20260901132006 24 78 0.0 1.6 0.00 0.00 0.00 80 1014.1
20260901131506 24 78 0.0 1.6 0.00 0.00 0.00 81 1014.1
20260901131010 23 78 0.0 3.2 0.00 0.00 0.00 81 1014.2
20260901130515 24 78 0.0 3.2 0.00 0.00 0.00 81 1014.1
20260901130025 23 144 0.0 3.2 0.00 0.00 0.00 82 1014.1
20260901125509 23 139 0.0 3.2 0.00 0.00 0.00 83 1014.0
20260901125013 23 153 0.0 4.8 0.00 0.00 0.00 84 1014.0
20260901124519 23 169 0.0 4.8 0.00 0.00 0.00 82 1014.0
20260901124007 23 155 0.0 3.2 0.00 0.00 0.00 84 1013.9
20260901123507 23 187 0.0 3.2 0.00 0.00 0.00 84 1013.8
20260901123017 23 187 0.0 3.2 0.00 0.00 0.00 84 1013.8
20260901122508 22 187 0.0 3.2 0.00 0.00 0.00 84 1013.6
20260901122009 22 187 0.0 3.2 0.00 0.00 0.00 85 1013.6
20260901121514 22 187 0.0 3.2 0.00 0.00 0.00 85 1013.6
20260901121012 22 187 0.0 3.2 0.00 0.00 0.00 85 1013.4
20260901120509 22 187 0.0 1.6 0.00 0.00 0.00 85 1013.4
20260901120011 22 187 0.0 0.0 0.00 0.00 0.00 85 1013.4
20260901115513 22 187 0.0 0.0 0.00 0.00 0.00 85 1013.4
20260901115011 22 187 0.0 3.2 0.00 0.00 0.00 85 1013.4
20260901114517 22 187 0.0 3.2 0.00 0.00 0.00 85 1013.4
20260901114016 22 187 0.0 3.2 0.00 0.00 0.00 86 1013.4
20260901113512 22 187 0.0 3.2 0.00 0.00 0.00 86 1013.5
20260901113014 22 187 0.0 1.6 0.00 0.00 0.00 84 1013.4
20260901112507 22 187 0.0 0.0 0.00 0.00 0.00 86 1013.5
20260901112011 22 187 0.0 3.2 0.00 0.00 0.00 87 1013.5
20260901111514 22 187 0.0 3.2 0.00 0.00 0.00 87 1013.5
20260901111013 22 187 0.0 3.2 0.00 0.00 0.00 87 1013.6
20260901110509 23 187 0.0 3.2 0.00 0.00 0.00 86 1013.7
20260901110031 23 187 0.0 3.2 0.00 0.00 0.00 87 1013.6
20260901105512 23 187 0.0 3.2 0.00 0.00 0.00 86 1013.6
20260901105017 23 187 0.0 0.0 0.00 0.00 0.00 86 1013.5
20260901104531 23 187 0.0 1.6 0.00 0.00 0.00 86 1013.5
20260901104013 23 187 0.0 1.6 0.00 0.00 0.00 86 1013.6
20260901103510 23 187 0.0 1.6 0.00 0.00 0.00 86 1013.6
20260901103027 23 187 0.0 0.0 0.00 0.00 0.00 86 1013.6
20260901102515 23 187 0.0 0.0 0.00 0.00 0.00 86 1013.6
20260901102015 23 187 0.0 0.0 0.00 0.00 0.00 86 1013.7
20260901101525 23 187 0.0 3.2 0.00 0.00 0.00 86 1013.7
20260901101008 23 187 0.0 3.2 0.00 0.00 0.00 86 1013.7
20260901100503 23 187 0.0 3.2 0.00 0.00 0.00 86 1013.8
20260901100005 23 187 0.0 3.2 0.00 0.00 0.00 86 1013.8
20260901095505 23 187 0.0 0.0 0.00 0.00 0.00 86 1013.8
20260901095005 23 187 0.0 0.0 0.00 0.00 0.00 86 1013.9
20260901094507 23 187 0.0 0.0 0.00 0.00 0.00 86 1013.8
20260901094004 23 187 0.0 0.0 0.00 0.00 0.00 86 1013.8
20260901093503 24 187 0.0 3.2 0.00 0.00 0.00 85 1013.8
20260901093006 24 187 0.0 3.2 0.00 0.00 0.00 85 1013.8
20260901092504 24 187 0.0 4.8 0.00 0.00 0.00 85 1013.9
20260901092004 24 186 0.0 4.8 0.00 0.00 0.00 85 1013.8
20260901091508 24 236 0.0 3.2 0.00 0.00 0.00 85 1013.8
20260901091006 23 186 0.0 3.2 0.00 0.00 0.00 86 1013.8
20260901090506 23 186 0.0 3.2 0.00 0.00 0.00 87 1013.9
20260901090011 23 186 0.0 3.2 0.00 0.00 0.00 88 1013.9
20260901085505 23 186 0.0 3.2 0.00 0.00 0.00 88 1013.9
20260901085012 23 186 0.0 3.2 0.00 0.00 0.00 88 1013.8
20260901084508 23 186 0.0 3.2 0.00 0.00 0.00 88 1013.8
20260901084007 23 186 0.0 3.2 0.00 0.00 0.00 87 1013.8
20260901083507 23 186 0.0 3.2 0.00 0.00 0.00 87 1013.7
20260901083009 23 186 0.0 0.0 0.00 0.00 0.00 87 1013.7
20260901082506 23 186 0.0 0.0 0.00 0.00 0.00 87 1013.7
20260901082004 23 186 0.0 0.0 0.00 0.00 0.00 88 1013.8
20260901081511 23 186 0.0 3.2 0.00 0.00 0.00 88 1013.8
20260901081006 23 186 0.0 3.2 0.00 0.00 0.00 88 1013.8
20260901080507 23 186 0.0 3.2 0.00 0.00 0.00 88 1013.8
20260901080008 23 186 0.0 3.2 0.00 0.00 0.00 88 1013.9
20260901075509 23 197 0.0 3.2 0.00 0.00 0.00 89 1014.0
20260901075007 23 196 0.0 3.2 0.00 0.00 0.00 89 1014.0
20260901074512 23 197 0.0 0.0 0.00 0.00 0.00 89 1014.0
20260901074006 23 197 0.0 0.0 0.00 0.00 0.00 88 1013.9
20260901073507 23 197 0.0 0.0 0.00 0.00 0.00 88 1013.9
20260901073013 23 196 0.0 0.0 0.00 0.00 0.00 87 1013.9
20260901072508 23 197 0.0 0.0 0.00 0.00 0.00 88 1013.9
20260901072010 23 197 0.0 0.0 0.00 0.00 0.00 87 1013.9
20260901071523 23 196 0.0 0.0 0.00 0.00 0.00 87 1014.0
20260901071007 23 196 0.0 0.0 0.00 0.00 0.00 88 1014.0
20260901070508 23 196 0.0 0.0 0.00 0.00 0.00 88 1014.0
20260901070010 23 197 0.0 0.0 0.00 0.00 0.00 88 1014.0
20260901065536 23 196 0.0 0.0 0.00 0.00 0.00 88 1014.0
20260901065009 23 196 0.0 0.0 0.00 0.00 0.00 88 1013.9
20260901064511 23 196 0.0 0.0 0.00 0.00 0.00 88 1014.1
20260901064008 23 196 0.0 0.0 0.00 0.00 0.00 88 1014.1
20260901063507 23 197 0.0 0.0 0.00 0.00 0.00 88 1014.1
20260901063025 23 196 0.0 0.0 0.00 0.00 0.00 88 1014.1
20260901062511 23 197 0.0 0.0 0.00 0.00 0.00 88 1014.2
20260901062008 23 197 0.0 0.0 0.00 0.00 0.00 88 1014.2
20260901061518 23 196 0.0 0.0 0.00 0.00 0.00 88 1014.1
20260901061010 23 197 0.0 0.0 0.00 0.00 0.00 88 1014.2
20260901060508 23 196 0.0 0.0 0.00 0.00 0.00 87 1014.2
20260901060014 24 196 0.0 0.0 0.00 0.00 0.00 87 1014.2
20260901055511 24 196 0.0 0.0 0.00 0.00 0.00 87 1014.2
20260901055009 24 196 0.0 0.0 0.00 0.00 0.00 87 1014.3
20260901054517 24 196 0.0 0.0 0.00 0.00 0.00 87 1014.3
20260901054012 24 196 0.0 1.6 0.00 0.00 0.00 86 1014.3
20260901053510 24 197 0.0 3.2 0.00 0.00 0.00 86 1014.4
20260901053014 25 197 0.0 3.2 0.00 0.00 0.00 86 1014.3
20260901052509 25 196 0.0 3.2 0.00 0.00 0.00 86 1014.4
20260901052009 25 197 0.0 1.6 0.00 0.00 0.00 86 1014.4
20260901051514 25 197 0.0 0.0 0.00 0.00 0.00 85 1014.2
20260901051011 25 196 0.0 0.0 0.00 0.00 0.00 85 1014.2
20260901050514 25 197 0.0 0.0 0.00 0.00 0.00 85 1014.2
20260901050019 25 197 0.0 0.0 0.00 0.00 0.00 85 1014.2
20260901045512 25 196 0.0 0.0 0.00 0.00 0.00 85 1014.3
20260901045010 25 197 0.0 0.0 0.00 0.00 0.00 85 1014.3
20260901044519 25 196 0.0 0.0 0.00 0.00 0.00 85 1014.3
20260901044010 25 196 0.0 0.0 0.00 0.00 0.00 84 1014.2
20260901043510 25 197 0.0 0.0 0.00 0.00 0.00 84 1014.3
20260901043023 25 197 0.0 0.0 0.00 0.00 0.00 84 1014.2
20260901042511 25 196 0.0 0.0 0.00 0.00 0.00 83 1014.2
20260901042011 25 197 0.0 0.0 0.00 0.00 0.00 83 1014.2
20260901041519 25 197 0.0 0.0 0.00 0.00 0.00 82 1014.2
20260901041010 25 196 0.0 0.0 0.00 0.00 0.00 82 1014.3
20260901040511 25 196 0.0 0.0 0.00 0.00 0.00 81 1014.3
20260901040018 26 196 0.0 0.0 0.00 0.00 0.00 81 1014.3
20260901035513 25 197 0.0 0.0 0.00 0.00 0.00 82 1014.3
20260901035011 25 196 0.0 0.0 0.00 0.00 0.00 82 1014.2
20260901034518 25 197 0.0 0.0 0.00 0.00 0.00 82 1014.1
20260901034011 26 196 0.0 0.0 0.00 0.00 0.00 81 1014.1
20260901033512 26 197 0.0 0.0 0.00 0.00 0.00 81 1013.9
20260901033023 26 196 0.0 0.0 0.00 0.00 0.00 81 1014.0
20260901032514 26 197 0.0 0.0 0.00 0.00 0.00 80 1014.0
20260901032013 26 196 0.0 0.0 0.00 0.00 0.00 80 1014.0
20260901031521 26 196 0.0 0.0 0.00 0.00 0.00 80 1014.0
20260901031013 26 197 0.0 0.0 0.00 0.00 0.00 79 1014.1
20260901030513 26 196 0.0 0.0 0.00 0.00 0.00 79 1014.0
20260901030020 26 196 0.0 0.0 0.00 0.00 0.00 79 1013.9
20260901025511 26 197 0.0 0.0 0.00 0.00 0.00 79 1013.9
20260901025010 26 197 0.0 0.0 0.00 0.00 0.00 79 1013.8
20260901024515 26 196 0.0 0.0 0.00 0.00 0.00 79 1013.7
20260901024010 26 196 0.0 0.0 0.00 0.00 0.00 80 1013.6
20260901023503 26 196 0.0 0.0 0.00 0.00 0.00 80 1013.6
20260901023002 26 196 0.0 0.0 0.00 0.00 0.00 80 1013.6
20260901022509 26 196 0.0 0.0 0.00 0.00 0.00 79 1013.7
20260901022011 26 196 0.0 0.0 0.00 0.00 0.00 79 1013.7
20260901021508 26 197 0.0 0.0 0.00 0.00 0.00 79 1013.6
20260901021010 26 196 0.0 0.0 0.00 0.00 0.00 78 1013.5
20260901020507 26 196 0.0 0.0 0.00 0.00 0.00 77 1013.4
20260901020007 26 196 0.0 0.0 0.00 0.00 0.00 77 1013.4
20260901015507 26 196 0.0 0.0 0.00 0.00 0.00 76 1013.4
20260901015004 26 196 0.0 0.0 0.00 0.00 0.00 75 1013.3
20260901014503 26 196 0.0 0.0 0.00 0.00 0.00 76 1013.3
20260901014003 26 196 0.0 0.0 0.00 0.00 0.00 76 1013.2
20260901013503 27 197 0.0 0.0 0.00 0.00 0.00 76 1013.3
20260901013010 27 197 0.0 0.0 0.00 0.00 0.00 75 1013.2
20260901012506 27 196 0.0 0.0 0.00 0.00 0.00 75 1013.2
20260901012009 27 196 0.0 0.0 0.00 0.00 0.00 75 1013.2
20260901011519 27 196 0.0 0.0 0.00 0.00 0.00 76 1013.2
20260901011004 27 196 0.0 0.0 0.00 0.00 0.00 75 1013.3
20260901010507 27 197 0.0 0.0 0.00 0.00 0.00 75 1013.3
20260901010013 27 197 0.0 0.0 0.00 0.00 0.00 74 1013.3
20260901005514 27 196 0.0 0.0 0.00 0.00 0.00 74 1013.4
20260901005003 27 196 0.0 0.0 0.00 0.00 0.00 75 1013.4
20260901004527 27 197 0.0 0.0 0.00 0.00 0.00 74 1013.3
20260901004013 27 196 0.0 0.0 0.00 0.00 0.00 72 1013.4
20260901003503 27 197 0.0 0.0 0.00 0.00 0.00 73 1013.5
20260901003008 28 196 0.0 0.0 0.00 0.00 0.00 71 1013.4
20260901002506 28 196 0.0 0.0 0.00 0.00 0.00 72 1013.4
20260901002007 28 196 0.0 0.0 0.00 0.00 0.00 71 1013.4
20260901001519 28 196 0.0 0.0 0.00 0.00 0.00 71 1013.4
20260901001009 28 196 0.0 0.0 0.00 0.00 0.00 71 1013.4
20260901000511 28 197 0.0 0.0 0.00 0.00 0.00 73 1013.5
20260901000023 29 196 0.0 0.0 0.00 0.00 0.00 71 1013.5
20260831235507 28 196 0.0 0.0 0.00 0.00 0.00 72 1013.4
20260831235008 28 197 0.0 0.0 0.00 0.00 0.00 74 1013.4
20260831234524 28 197 0.0 0.0 0.00 0.00 0.00 70 1013.5
20260831234010 28 196 0.0 0.0 0.00 0.00 0.00 71 1013.5
20260831233510 28 197 0.0 0.0 0.00 0.00 0.00 72 1013.5
20260831233023 28 196 0.0 0.0 0.00 0.00 0.00 72 1013.6
20260831232504 29 197 0.0 0.0 0.00 0.00 0.00 72 1013.6
20260831232007 29 196 0.0 0.0 0.00 0.00 0.00 71 1013.5
20260831231511 29 197 0.0 0.0 0.00 0.00 0.00 69 1013.5
20260831231007 28 197 0.0 0.0 0.00 0.00 0.00 72 1013.4
20260831230509 29 196 0.0 3.2 0.00 0.00 0.00 69 1013.5
20260831230015 29 196 0.0 3.2 0.00 0.00 0.00 70 1013.4
20260831225512 29 196 0.0 3.2 0.00 0.00 0.00 70 1013.4
20260831225012 30 196 0.0 3.2 0.00 0.00 0.00 65 1013.4
20260831224508 30 196 0.0 3.2 0.00 0.00 0.00 67 1013.6
20260831224014 30 173 0.0 3.2 0.00 0.00 0.00 66 1013.4
20260831223512 31 170 0.0 3.2 0.00 0.00 0.00 66 1013.5
20260831223010 31 177 0.0 3.2 0.00 0.00 0.00 64 1013.5
20260831222508 30 188 0.0 3.2 0.00 0.00 0.00 64 1013.5
20260831222012 31 186 0.0 4.8 0.00 0.00 0.00 62 1013.5
20260831221535 31 286 1.6 3.2 0.00 0.00 0.00 61 1013.5
20260831221007 31 202 0.0 3.2 0.00 0.00 0.00 63 1013.5
20260831220509 30 180 0.0 3.2 0.00 0.00 0.00 64 1013.5
20260831220015 30 281 0.0 3.2 0.00 0.00 0.00 65 1013.6
20260831215511 30 38 0.0 3.2 0.00 0.00 0.00 69 1013.5
20260831215010 30 83 1.6 3.2 0.00 0.00 0.00 62 1013.5
20260831214539 31 255 0.0 3.2 0.00 0.00 0.00 62 1013.6
20260831214012 31 298 0.0 4.8 0.00 0.00 0.00 66 1013.6
20260831213514 31 153 1.6 4.8 0.00 0.00 0.00 62 1013.7
20260831213017 31 334 0.0 8.0 0.00 0.00 0.00 60 1013.8
20260831212510 31 313 0.0 9.7 0.00 0.00 0.00 64 1013.8
20260831212014 31 277 3.2 9.7 0.00 0.00 0.00 61 1013.7
20260831211514 31 188 0.0 6.4 0.00 0.00 0.00 63 1013.7
20260831211017 31 317 1.6 6.4 0.00 0.00 0.00 1013.7
20260831210516 31 352 3.2 6.4 0.00 0.00 0.00 62 1013.8
20260831210012 32 350 1.6 9.7 0.00 0.00 0.00 62 1013.8
20260831205511 31 249 4.8 9.7 0.00 0.00 0.00 64 1013.7
20260831205016 31 252 3.2 6.4 0.00 0.00 0.00 60 1013.7
20260831204516 31 314 3.2 6.4 0.00 0.00 0.00 61 1013.8
20260831204013 31 337 1.6 6.4 0.00 0.00 0.00 62 1013.8
20260831203518 31 342 1.6 6.4 0.00 0.00 0.00 59 1013.9
20260831203024 31 315 1.6 6.4 0.00 0.00 0.00 62 1014.0
20260831202514 31 268 1.6 6.4 0.00 0.00 0.00 61 1014.0
20260831202012 31 267 0.0 6.4 0.00 0.00 0.00 63 1014.0
20260831201534 31 180 1.6 12.9 0.00 0.00 0.00 61 1014.0
20260831201015 31 265 3.2 12.9 0.00 0.00 0.00 61 1014.1
20260831200507 31 297 1.6 6.4 0.00 0.00 0.00 60 1014.1
20260831200036 31 252 1.6 6.4 0.00 0.00 0.00 60 1014.0
20260831195512 31 254 3.2 8.0 0.00 0.00 0.00 59 1014.0
20260831195017 31 259 3.2 11.3 0.00 0.00 0.00 58 1014.0
20260831194514 32 325 1.6 9.7 0.00 0.00 0.00 60 1014.0
20260831194013 31 143 0.0 4.8 0.00 0.00 0.00 62 1014.1
20260831193510 31 331 1.6 4.8 0.00 0.00 0.00 61 1014.1
20260831193022 31 248 1.6 4.8 0.00 0.00 0.00 60 1014.0
20260831192514 31 242 1.6 8.0 0.00 0.00 0.00 62 1014.0
20260831192014 31 263 0.0 9.7 0.00 0.00 0.00 60 1013.9
20260831191528 31 257 3.2 9.7 0.00 0.00 0.00 59 1013.9
20260831191015 32 295 1.6 4.8 0.00 0.00 0.00 60 1013.9
20260831190515 32 337 1.6 3.2 0.00 0.00 0.00 62 1013.9
20260831190024 30 247 1.6 3.2 0.00 0.00 0.00 62 1013.9
20260831185516 30 360 1.6 3.2 0.00 0.00 0.00 62 1013.9
20260831185013 31 291 1.6 6.4 0.00 0.00 0.00 62 1014.0
20260831184521 31 167 0.0 6.4 0.00 0.00 0.00 63 1014.0